QPF
0.00 0.00 0.00 0.00 0.00 0.00 0.00 0.00 0.00 0.00 0.00 0.00 0.00 0.00 0.00 0.00 0.00 0.00 0.00 0.00 0.00 0.00 0.00 0.00 0.00 0.00 0.00 0.00 0.00 0.00 0.00 0.00 0.00 0.00 0.00 0.00 0.00 0.00 0.00 0.00 0.00 0.00 0.00 0.00 0.00
0.00 0.00 0.00 0.00 0.00 0.00 0.00 0.00 0.00 0.00 0.00 0.00 0.00 0.00 0.00 0.00 0.00 0.00 0.00 0.00 0.00 0.00 0.00 0.00 0.00 0.00 0.00 0.00 0.00 0.00 0.00 0.00 0.00 0.00 0.00 0.00 0.00 0.00 0.00 0.00 0.00 0.00 0.00 0.00 0.00
0.00 0.00 0.00 0.00 0.00 0.00 0.00 0.00 0.00 0.00 0.00 0.00 0.00 0.00 0.00 0.00 0.00 0.00 0.00 0.00 0.00 0.00 0.00 0.00 0.00 0.00 0.00 0.00 0.00 0.00 0.00 0.00 0.00 0.00 0.00 0.00 0.00 0.00 0.00 0.00 0.00 0.00 0.00 0.00 0.00
0.00 0.00 0.00 0.00 0.00 0.00 0.00 0.00 0.00 0.00 0.00 0.00 0.00 0.00 0.00 0.00 0.00 0.00 0.00 0.00 0.00 0.00 0.00 0.00 0.00 0.00 0.00 0.00 0.00 0.00 0.00 0.00 0.00 0.00 0.00 0.00 0.00 0.00 0.00 0.00 0.00 0.00 0.00 0.00 0.00
0.00 0.00 0.00 0.00 0.00 0.00 0.00 0.00 0.00 0.00 0.00 0.00 0.00 0.00 0.00 0.00 0.00 0.00 0.00 0.00 0.00 0.00 0.00 0.00 0.00 0.00 0.00 0.00 0.00 0.00 0.00 0.00 0.00 0.00 0.00 0.00 0.00 0.00 0.00 0.00 0.00 0.00 0.00 0.00 0.00
0.00 0.00 0.00 0.00 0.00 0.00 0.00 0.00 0.00 0.00 0.00 0.00 0.00 0.00 0.00 0.00 0.00 0.00 0.00 0.00 0.00 0.00 0.00 0.00 0.00 0.00 0.00 0.00 0.00 0.00 0.00 0.00 0.00 0.00 0.00 0.00 0.00 0.00 0.00 0.00 0.00 0.00 0.00 0.00 0.00
0.00 0.00 0.00 0.00 0.00 0.00 0.00 0.00 0.00 0.00 0.00 0.00 0.00 0.00 0.00 0.00 0.00 0.00 0.00 0.00 0.00 0.00 0.00 0.00 0.00 0.00 0.00 0.00 0.00 0.00 0.00 0.00 0.00 0.00 0.00 0.00 0.00 0.00 0.00 0.00 0.00 0.00 0.00 0.00 0.00
0.00 0.00 0.00 0.00 0.00 0.00 0.00 0.00 0.00 0.00 0.00 0.00 0.00 0.00 0.00 0.00 0.00 0.00 0.00 0.00 0.00 0.00 0.00 0.00 0.00 0.00 0.00 0.00 0.00 0.00 0.00 0.00 0.00 0.00 0.00 0.00 0.00 0.00 0.00 0.00 0.00 0.00 0.00 0.00 0.00
0.00 0.00 0.00 0.00 0.00 0.00 0.00 0.00 0.00 0.00 0.00 0.00 0.00 0.00 0.00 0.00 0.00 0.00 0.00 0.00 0.00 0.00 0.00 0.00 0.00 0.00 0.00 0.00 0.00 0.00 0.00 0.00 0.00 0.00 0.00 0.00 0.00 0.00 0.00 0.00 0.00 0.00 0.00 0.00 0.00
0.00 0.00 0.00 0.00 0.00 0.00 0.00 0.00 0.00 0.00 0.00 0.00 0.00 0.00 0.00 0.00 0.00 0.00 0.00 0.00 0.00 0.00 0.00 0.00 0.00 0.00 0.00 0.00 0.00 0.00 0.00 0.00 0.00 0.00 0.00 0.00 0.00 0.00 0.00 0.00 0.00 0.00 0.00 0.00 0.00
0.00 0.00 0.00 0.00 0.00 0.00 0.00 0.00 0.00 0.00 0.00 0.00 0.00 0.00 0.00 0.00 0.00 0.00 0.00 0.00 0.00 0.00 0.00 0.00 0.00 0.00 0.00 0.00 0.00 0.00 0.00 0.00 0.00 0.00 0.00 0.00 0.00 0.00 0.00 0.00 0.00 0.00 0.00 0.00 0.00
0.00 0.00 0.00 0.00 0.00 0.00 0.00 0.00 0.00 0.00 0.00 0.00 0.00 0.00 0.00 0.00 0.00 0.00 0.00 0.00 0.00 0.00 0.00 0.00 0.00 0.00 0.00 0.00 0.00 0.00 0.00 0.00 0.00 0.00 0.00 0.00 0.00 0.00 0.00 0.00 0.00 0.00 0.00 0.00 0.00
0.00 0.00 0.00 0.00 0.00 0.00 0.00 0.00 0.00 0.00 0.00 0.00 0.00 0.00 0.00 0.00 0.00 0.00 0.00 0.00 0.00 0.00 0.00 0.00 0.00 0.00 0.00 0.00 0.00 0.00 0.00 0.00 0.00 0.00 0.00 0.00 0.00 0.00 0.00 0.00 0.00 0.00 0.00 0.00 0.00
0.00 0.00 0.00 0.00 0.00 0.00 0.00 0.00 0.00 0.00 0.00 0.00 0.00 0.00 0.00 0.00 0.00 0.00 0.00 0.00 0.00 0.00 0.00 0.00 0.00 0.00 0.00 0.00 0.00 0.00 0.00 0.00 0.00 0.00 0.00 0.00 0.00 0.00 0.00 0.00 0.00 0.00 0.00 0.00 0.00
0.00 0.00 0.00 0.00 0.00 0.00 0.00 0.00 0.00 0.00 0.00 0.00 0.00 0.00 0.00 0.00 0.00 0.00 0.00 0.00 0.00 0.00 0.00 0.00 0.00 0.00 0.00 0.00 0.00 0.00 0.00 0.00 0.00 0.00 0.00 0.00 0.00 0.00 0.00 0.00 0.00 0.00 0.00 0.00 0.00
0.00 0.00 0.00 0.00 0.00 0.00 0.00 0.00 0.00 0.00 0.00 0.00 0.00 0.00 0.00 0.00 0.00 0.00 0.00 0.00 0.00 0.00 0.00 0.00 0.00 0.00 0.00 0.00 0.00 0.00 0.00 0.00 0.00 0.00 0.00 0.00 0.00 0.00 0.00 0.00 0.00 0.00 0.00 0.00 0.00
0.00 0.00 0.00 0.00 0.00 0.00 0.00 0.00 0.00 0.00 0.00 0.00 0.00 0.00 0.00 0.00 0.00 0.00 0.00 0.00 0.00 0.00 0.00 0.00 0.00 0.00 0.00 0.00 0.00 0.00 0.00 0.00 0.00 0.00 0.00 0.00 0.00 0.00 0.00 0.00 0.00 0.00 0.00 0.00 0.00
0.00 0.00 0.00 0.00 0.00 0.00 0.00 0.00 0.00 0.00 0.00 0.00 0.00 0.00 0.00 0.00 0.00 0.00 0.00 0.00 0.00 0.00 0.00 0.00 0.00 0.00 0.00 0.00 0.00 0.00 0.00 0.00 0.00 0.00 0.00 0.00 0.00 0.00 0.00 0.00 0.00 0.00 0.00 0.00 0.00
0.00 0.00 0.00 0.00 0.00 0.00 0.00 0.00 0.00 0.00 0.00 0.00 0.00 0.00 0.00 0.00 0.00 0.00 0.00 0.00 0.00 0.00 0.00 0.00 0.00 0.00 0.00 0.00 0.00 0.00 0.00 0.00 0.00 0.00 0.00 0.00 0.00 0.00 0.00 0.00 0.00 0.00 0.00 0.00 0.00
0.00 0.00 0.00 0.00 0.00 0.00 0.00 0.00 0.00 0.00 0.00 0.00 0.00 0.00 0.00 0.00 0.00 0.00 0.00 0.00 0.00 0.00 0.00 0.00 0.00 0.00 0.00 0.00 0.00 0.00 0.00 0.00 0.00 0.00 0.00 0.00 0.00 0.00 0.00 0.00 0.00 0.00 0.00 0.00 0.00
0.00 0.00 0.00 0.00 0.00 0.00 0.00 0.00 0.00 0.00 0.00 0.00 0.00 0.00 0.00 0.00 0.00 0.00 0.00 0.00 0.00 0.00 0.00 0.00 0.00 0.00 0.00 0.00 0.00 0.00 0.00 0.00 0.00 0.00 0.00 0.00 0.00 0.00 0.00 0.00 0.00 0.00 0.00 0.00 0.00
0.00 0.00 0.00 0.00 0.00 0.00 0.00 0.00 0.00 0.00 0.00 0.00 0.00 0.00 0.00 0.00 0.00 0.00 0.00 0.00 0.00 0.00 0.00 0.00 0.00 0.00 0.00 0.00 0.00 0.00 0.00 0.00 0.00 0.00 0.00 0.00 0.00 0.00 0.00 0.00 0.00 0.00 0.00 0.00 0.00
0.00 0.00 0.00 0.00 0.00 0.00 0.00 0.00 0.00 0.00 0.00 0.00 0.00 0.00 0.00 0.00 0.00 0.00 0.00 0.00 0.00 0.00 0.00 0.00 0.00 0.00 0.00 0.00 0.00 0.00 0.00 0.00 0.00 0.00 0.00 0.00 0.00 0.00 0.00 0.00 0.00 0.00 0.00 0.00 0.00
0.00 0.00 0.00 0.00 0.00 0.00 0.00 0.00 0.00 0.00 0.00 0.00 0.00 0.00 0.00 0.00 0.00 0.00 0.00 0.00 0.00 0.00 0.00 0.00 0.00 0.00 0.00 0.00 0.00 0.00 0.00 0.00 0.00 0.00 0.00 0.00 0.00 0.00 0.00 0.00 0.00 0.00 0.00 0.00 0.00
0.00 0.00 0.00 0.00 0.00 0.00 0.00 0.00 0.00 0.00 0.00 0.00 0.00 0.00 0.00 0.00 0.00 0.00 0.00 0.00 0.00 0.00 0.00 0.00 0.00 0.00 0.00 0.00 0.00 0.00 0.00 0.00 0.00 0.00 0.00 0.00 0.00 0.00 0.00 0.00 0.00 0.00 0.00 0.00 0.00
0.00 0.00 0.00 0.00 0.00 0.00 0.00 0.00 0.00 0.00 0.00 0.00 0.00 0.00 0.00 0.00 0.00 0.00 0.00 0.00 0.00 0.00 0.00 0.00 0.00 0.00 0.00 0.00 0.00 0.00 0.00 0.00 0.00 0.00 0.00 0.00 0.00 0.00 0.00 0.00 0.00 0.00 0.00 0.00 0.00
0.00 0.00 0.00 0.00 0.00 0.00 0.00 0.00 0.00 0.00 0.00 0.00 0.00 0.00 0.00 0.00 0.00 0.00 0.00 0.00 0.00 0.00 0.00 0.00 0.00 0.00 0.00 0.00 0.00 0.00 0.00 0.00 0.00 0.00 0.00 0.00 0.00 0.00 0.00 0.00 0.00 0.00 0.00 0.00 0.00
MSLP
1016.93 1016.54 1016.18 1015.81 1015.33 1014.87 1014.43 1014.04 1013.65 1013.20 1012.65 1012.24 1011.77 1011.25 1010.72 1010.10 1008.67 1007.46 1005.68 1005.19 1005.19 1005.13 1005.18 1003.32 1002.97 1002.01 1001.69 1000.42 1000.07 999.41 998.64 998.37 999.17 999.63 1000.64 1001.32 1001.30 1002.06 1002.42 1002.89 1003.13 1003.58 1003.49 1005.24 1006.90
1017.01 1016.62 1016.18 1015.80 1015.32 1014.82 1014.39 1013.94 1013.44 1013.06 1012.58 1012.09 1011.61 1011.16 1010.68 1010.30 1008.16 1005.51 1005.09 1004.93 1005.02 1005.24 1004.51 1002.61 1001.29 1000.92 1000.03 999.36 999.16 998.29 998.23 999.19 999.89 999.67 1000.27 1001.08 1001.29 1002.02 1002.36 1003.05 1003.55 1003.85 1004.38 1005.84 1006.94
1017.02 1016.64 1016.23 1015.76 1015.27 1014.77 1014.27 1013.80 1013.29 1012.83 1012.40 1011.95 1011.40 1010.93 1010.49 1010.09 1006.99 1003.66 1004.57 1004.71 1005.02 1004.97 1003.96 1002.60 1001.57 1000.68 998.92 998.80 999.09 999.02 998.91 999.39 1000.07 1000.50 1000.19 1000.88 1001.22 1001.67 1001.99 1001.90 1002.74 1003.90 1005.03 1006.01 1006.72
1017.05 1016.65 1016.24 1015.75 1015.22 1014.70 1014.19 1013.65 1013.11 1012.59 1012.11 1011.72 1011.18 1010.70 1010.23 1008.79 1004.89 1003.85 1004.45 1004.65 1004.79 1004.36 1003.61 1002.27 1001.05 1000.00 998.51 998.21 998.96 998.81 999.15 999.66 1000.25 1000.79 1000.49 1000.60 1001.19 1001.44 1001.89 1002.45 1002.59 1003.94 1005.18 1006.00 1006.48
1016.93 1016.50 1016.06 1015.55 1015.03 1014.55 1013.94 1013.39 1012.90 1012.36 1011.86 1011.40 1010.97 1010.62 1009.44 1006.66 1003.64 1003.82 1004.26 1004.38 1003.94 1003.91 1002.77 1001.68 1000.46 999.49 998.62 998.36 998.88 998.81 999.15 999.65 1000.29 1000.65 1000.52 1000.95 1001.09 1001.43 1002.20 1002.53 1003.23 1004.25 1005.25 1005.79 1006.17
1016.81 1016.32 1015.84 1015.36 1014.81 1014.29 1013.70 1013.02 1012.49 1011.92 1011.45 1011.03 1010.74 1010.67 1008.75 1004.91 1003.23 1003.30 1003.66 1003.34 1002.72 1002.81 1002.07 1001.21 1000.20 999.62 999.20 998.86 999.05 999.33 999.25 999.63 999.93 1000.23 1000.56 1000.38 1000.86 1001.17 1002.27 1002.84 1003.59 1004.38 1005.05 1005.47 1005.79
1016.69 1016.21 1015.65 1015.05 1014.50 1013.93 1013.36 1012.68 1012.05 1011.45 1010.95 1010.61 1010.44 1009.79 1006.69 1003.53 1003.25 1003.17 1003.31 1002.64 1002.13 1001.89 1001.19 1000.83 1000.30 1000.27 999.56 999.03 999.12 999.28 998.87 999.08 999.36 999.66 999.76 1000.22 1001.00 1000.41 1001.80 1002.81 1003.55 1004.23 1004.75 1005.12 1005.54
1016.51 1016.08 1015.53 1014.85 1014.17 1013.49 1012.98 1012.34 1011.64 1010.89 1010.38 1010.05 1010.07 1008.74 1004.70 1003.16 1003.25 1003.24 1002.93 1002.52 1002.33 1001.92 1001.30 1000.57 1000.79 1000.46 999.64 999.06 999.28 998.99 998.63 998.00 999.24 999.21 999.48 1000.05 999.42 1000.22 1001.54 1002.46 1003.08 1003.83 1004.48 1004.88 1005.36
1016.37 1015.85 1015.29 1014.66 1014.00 1013.24 1012.56 1011.91 1011.10 1010.50 1010.10 1009.89 1009.27 1006.95 1003.11 1003.78 1003.06 1002.29 1002.16 1001.84 1001.64 1001.77 1001.62 1001.69 1001.46 1000.52 999.84 999.56 998.52 998.02 997.94 997.84 998.29 998.95 998.97 999.01 998.88 999.98 1001.27 1001.87 1002.58 1003.35 1004.01 1004.51 1005.05
1016.29 1015.70 1015.07 1014.38 1013.70 1013.05 1012.10 1011.17 1010.33 1010.33 1009.82 1008.54 1007.31 1005.79 1003.12 1001.96 1001.97 1002.11 1002.02 1001.65 1001.18 1001.30 1001.44 1001.51 1000.92 1000.11 999.50 998.81 997.54 997.60 997.13 997.57 998.01 998.64 998.96 998.64 998.28 999.33 1000.50 1001.05 1001.76 1002.58 1003.43 1004.07 1004.57
1016.13 1015.51 1014.86 1014.13 1013.38 1012.77 1011.72 1009.48 1009.59 1008.65 1007.04 1004.40 1003.72 1002.75 1002.42 1002.21 1002.45 1002.22 1001.84 1001.75 1000.99 1000.80 1000.51 1000.50 999.93 999.10 998.71 998.46 997.73 997.57 997.53 997.43 997.95 999.08 999.09 998.34 998.23 998.32 999.48 1000.33 1000.72 1001.57 1002.62 1003.38 1003.93
1015.95 1015.30 1014.63 1013.83 1012.96 1012.23 1011.90 1007.78 1007.68 1007.71 1005.39 1003.42 1003.28 1002.88 1002.63 1002.57 1001.44 1001.30 1001.57 1001.28 1000.78 1000.08 1000.09 999.56 998.98 998.69 998.49 998.12 997.93 997.78 998.29 997.67 997.64 998.41 999.00 998.36 997.91 997.74 998.33 999.33 999.96 1000.41 1001.29 1002.45 1003.18
1015.86 1015.18 1014.42 1013.45 1012.48 1011.19 1008.82 1007.60 1007.66 1007.22 1005.15 1002.60 1002.25 1001.89 1001.93 1002.31 1000.81 1000.52 1001.31 1000.66 1000.18 999.84 999.15 998.68 998.16 998.50 998.37 997.99 997.98 998.10 998.16 997.56 998.04 997.93 998.51 998.04 997.20 996.89 997.07 997.89 998.86 999.52 1000.10 1001.03 1002.00
1015.70 1015.08 1014.40 1013.28 1012.16 1009.25 1007.66 1007.73 1007.35 1007.18 1003.94 1001.77 1001.61 1001.22 1001.84 1001.41 1000.59 1000.16 1000.78 1000.36 999.98 999.59 998.99 998.87 998.69 998.38 998.17 997.96 998.32 998.00 998.08 998.09 997.82 998.51 997.67 997.27 996.43 997.23 996.04 997.03 997.47 998.27 998.93 999.67 1000.91
1015.51 1015.00 1014.42 1014.32 1011.95 1008.34 1007.68 1007.53 1007.40 1006.64 1002.07 1000.50 1000.66 1001.30 1000.77 1000.39 999.60 1000.62 1000.53 1000.31 999.72 999.61 999.38 998.52 998.59 998.30 998.65 998.40 998.52 998.08 997.95 997.67 997.91 998.19 997.80 997.10 996.45 995.26 996.35 995.90 995.84 996.97 997.60 998.61 999.51
1015.12 1014.72 1014.32 1011.91 1011.30 1008.53 1008.04 1007.61 1006.96 1004.69 1000.16 999.91 1000.17 1000.41 1000.39 1000.06 999.66 1000.21 1000.66 1000.58 999.69 999.50 999.57 998.88 998.49 998.77 998.45 998.50 998.35 998.38 998.24 998.11 998.46 998.15 997.25 996.47 995.99 995.00 995.57 999.13 994.97 995.55 996.22 997.47 998.48
1014.60 1014.20 1014.26 1012.00 1008.42 1008.37 1008.12 1006.83 1004.40 1001.10 999.53 999.49 999.08 999.55 999.18 999.02 999.25 999.83 999.96 999.93 999.36 999.27 998.50 998.59 998.36 998.83 998.95 998.41 998.21 998.48 998.19 997.56 997.54 996.99 996.29 995.76 995.30 994.61 994.46 994.73 994.79 995.31 995.71 996.71 997.80
1013.73 1013.51 1011.67 1010.66 1008.91 1008.71 1007.68 1005.54 1001.88 999.59 998.64 999.00 998.67 998.66 998.28 998.30 998.51 999.04 999.12 998.88 998.90 998.14 996.88 997.04 997.03 997.72 998.24 998.35 997.71 997.82 997.61 996.89 996.34 995.84 995.20 994.83 994.53 994.25 994.34 994.39 994.76 995.14 995.40 996.36 997.09
1012.84 1010.60 1009.26 1008.43 1008.92 1008.66 1006.71 1003.10 999.95 999.21 999.27 998.74 998.71 998.19 997.79 997.96 998.20 998.32 998.21 997.97 997.79 998.19 997.36 996.38 996.78 997.52 997.77 997.97 998.21 997.01 997.31 997.06 996.20 995.57 995.13 995.24 998.22 995.20 994.55 994.49 994.32 994.38 994.98 995.73 996.62
1012.12 1008.56 1007.59 1008.11 1008.30 1007.87 1005.52 1001.81 1000.51 1000.64 1000.42 999.56 997.94 997.55 997.18 997.60 998.10 997.79 997.62 997.40 997.40 997.83 997.95 996.92 997.04 997.02 997.16 998.17 997.87 997.37 996.56 996.62 996.36 995.73 995.20 994.74 995.37 994.09 994.26 994.18 994.35 994.20 995.07 994.86 996.25
1011.50 1007.15 1007.50 1007.84 1007.77 1006.24 1003.19 1001.02 1001.04 1001.13 1000.99 999.72 998.40 997.87 996.83 997.02 997.21 997.23 997.11 997.68 997.71 997.61 997.99 997.68 997.23 996.82 997.40 997.34 996.75 997.22 996.95 996.81 995.96 995.64 995.37 994.78 994.61 995.06 993.71 993.91 994.19 994.42 994.72 995.16 995.60
1009.40 1005.90 1006.97 1007.29 1006.05 1003.95 1001.99 1001.43 1002.06 1000.81 1001.00 1000.23 999.90 998.48 997.43 997.17 996.89 996.64 996.91 997.01 998.27 998.01 998.00 997.91 997.05 996.17 996.00 996.01 996.83 996.31 996.24 996.44 995.62 995.57 994.72 994.58 994.98 995.70 993.87 993.84 994.01 994.24 994.86 995.62 996.17
1008.59 1006.16 1006.69 1006.45 1003.83 1002.37 1001.87 1002.00 1001.75 1001.06 1000.62 1000.27 999.66 999.39 998.83 997.93 997.43 997.12 997.13 998.27 998.87 998.46 998.25 997.94 997.54 996.09 995.80 995.82 996.48 996.57 996.33 995.66 995.61 994.91 994.53 994.29 994.55 993.51 993.39 993.64 993.96 994.41 994.89 995.92 996.84
1009.33 1005.64 1005.59 1005.64 1004.21 1002.74 1001.50 1001.52 1001.37 1001.65 1000.96 1000.82 1000.15 999.95 999.39 998.70 998.19 997.73 997.69 998.61 999.05 998.73 999.65 999.33 997.53 996.32 995.26 995.54 995.66 995.85 996.24 996.18 995.58 994.69 994.03 993.77 993.41 993.13 993.46 993.95 994.14 994.82 995.52 996.20 997.07
1008.85 1005.59 1005.28 1003.84 1003.34 1002.79 1002.28 1001.62 1001.30 1001.14 1001.65 1001.16 1000.56 1000.12 999.37 998.69 998.29 998.27 997.98 998.14 999.09 999.66 999.56 998.90 997.48 996.86 996.44 996.41 996.48 996.43 995.82 995.49 995.60 995.17 994.48 993.77 994.62 994.06 993.84 994.41 994.41 995.46 996.27 996.61 997.47
1009.43 1007.50 1006.14 1004.68 1004.14 1003.28 1002.77 1002.10 1001.55 1000.99 1001.26 1000.92 1000.76 1000.19 1000.21 999.60 998.65 998.55 998.23 998.28 997.96 998.63 998.94 998.48 997.95 997.76 997.22 997.00 996.21 996.31 996.15 995.74 995.22 994.84 995.12 994.67 994.19 993.91 994.37 994.57 995.02 995.91 996.78 997.10 997.69
1010.35 1009.24 1008.25 1005.17 1003.99 1003.38 1002.40 1002.30 1002.14 1002.03 1001.87 1001.35 1000.83 1000.95 1000.63 1000.61 1000.64 1000.66 1000.08 999.36 998.68 998.91 998.45 997.91 997.77 997.79 997.23 997.00 996.63 995.86 995.42 995.43 995.18 994.98 994.94 994.60 994.49 994.51 994.70 995.08 995.45 995.98 996.90 997.08 997.82
Thickness
5761 5766 5771 5775 5780 5785 5790 5793 5797 5801 5807 5811 5815 5818 5823 5830 5842 5854 5856 5868 5872 5875 5876 5886 5884 5888 5889 5884 5891 5897 5855 5852 5850 5845 5838 5854 5843 5853 5856 5837 5840 5839 5839 5830 5824
5757 5762 5768 5773 5778 5783 5788 5792 5797 5801 5805 5810 5815 5818 5822 5827 5845 5858 5872 5874 5874 5873 5873 5877 5878 5887 5881 5887 5889 5883 5865 5851 5864 5871 5854 5854 5851 5846 5839 5831 5827 5831 5839 5832 5823
5753 5758 5764 5770 5775 5781 5786 5791 5796 5801 5805 5810 5815 5819 5822 5827 5843 5867 5876 5875 5874 5875 5880 5886 5888 5884 5884 5895 5882 5877 5854 5870 5866 5868 5873 5857 5853 5858 5841 5833 5839 5826 5825 5825 5820
5749 5754 5759 5765 5772 5778 5783 5789 5795 5800 5805 5809 5815 5819 5823 5835 5825 5873 5876 5875 5875 5879 5877 5878 5880 5873 5882 5882 5887 5866 5878 5872 5868 5868 5867 5858 5862 5850 5850 5843 5858 5845 5835 5826 5818
5745 5751 5756 5762 5769 5775 5781 5787 5793 5799 5804 5809 5814 5818 5830 5836 5851 5877 5876 5877 5882 5877 5872 5871 5871 5879 5873 5887 5882 5872 5874 5877 5873 5869 5870 5868 5855 5852 5846 5858 5858 5847 5835 5827 5823
5742 5748 5754 5760 5766 5772 5779 5786 5793 5799 5804 5808 5812 5814 5826 5825 5878 5880 5880 5881 5883 5877 5875 5879 5876 5889 5877 5879 5871 5876 5877 5872 5875 5870 5868 5860 5857 5860 5852 5860 5849 5842 5834 5832 5828
5738 5743 5750 5757 5764 5771 5777 5785 5792 5799 5804 5808 5811 5818 5831 5844 5876 5879 5878 5880 5888 5884 5874 5887 5891 5875 5882 5872 5889 5879 5865 5874 5874 5873 5867 5870 5840 5851 5861 5857 5845 5840 5837 5835 5832
5734 5740 5747 5754 5762 5770 5776 5783 5790 5798 5804 5808 5810 5821 5829 5872 5875 5872 5877 5875 5885 5889 5887 5895 5891 5876 5875 5893 5877 5864 5872 5855 5865 5874 5873 5862 5790 5859 5866 5854 5845 5842 5838 5836 5833
5731 5737 5744 5751 5759 5767 5775 5782 5790 5795 5800 5804 5812 5823 5833 5864 5856 5875 5879 5866 5877 5880 5884 5884 5875 5863 5870 5851 5856 5871 5842 5856 5861 5877 5872 5866 5852 5863 5866 5858 5848 5845 5841 5838 5834
5727 5734 5741 5750 5757 5764 5774 5783 5790 5792 5799 5809 5818 5811 5840 5842 5862 5868 5878 5876 5866 5866 5860 5858 5856 5845 5853 5853 5834 5843 5860 5862 5855 5867 5867 5863 5866 5869 5867 5861 5854 5850 5845 5840 5836
5724 5731 5739 5747 5754 5761 5773 5792 5790 5792 5807 5820 5825 5828 5836 5853 5861 5854 5868 5860 5865 5856 5834 5851 5834 5828 5846 5862 5874 5873 5865 5861 5866 5866 5857 5864 5867 5873 5871 5864 5859 5856 5849 5844 5841
5723 5730 5737 5744 5753 5761 5766 5796 5791 5792 5792 5827 5825 5827 5838 5844 5833 5848 5866 5840 5841 5830 5845 5841 5828 5855 5866 5871 5868 5867 5849 5858 5875 5871 5858 5860 5862 5881 5875 5868 5867 5864 5859 5850 5847
5722 5729 5736 5744 5754 5766 5787 5791 5798 5799 5787 5813 5824 5823 5828 5833 5832 5839 5849 5846 5836 5830 5841 5833 5851 5862 5855 5858 5851 5850 5845 5859 5848 5868 5865 5861 5856 5868 5881 5880 5877 5875 5874 5867 5857
5722 5727 5734 5744 5756 5780 5784 5791 5796 5796 5780 5796 5804 5819 5823 5831 5821 5856 5856 5846 5837 5826 5840 5837 5856 5849 5847 5843 5849 5832 5865 5861 5859 5838 5827 5872 5829 5836 5874 5869 5874 5874 5875 5873 5865
5722 5726 5731 5733 5754 5774 5783 5790 5792 5787 5768 5809 5807 5834 5831 5821 5836 5829 5858 5844 5825 5827 5834 5830 5837 5840 5828 5838 5850 5838 5867 5866 5856 5842 5845 5852 5844 5873 5875 5872 5875 5876 5880 5879 5876
5724 5727 5731 5751 5755 5776 5782 5787 5784 5763 5768 5795 5810 5804 5805 5820 5827 5833 5830 5845 5851 5831 5832 5834 5859 5845 5844 5851 5854 5859 5849 5850 5844 5840 5817 5852 5855 5859 5872 5796 5880 5891 5889 5885 5882
5727 5731 5731 5746 5771 5776 5779 5778 5765 5773 5815 5793 5802 5810 5813 5813 5817 5818 5814 5812 5811 5796 5808 5825 5832 5842 5847 5832 5849 5841 5830 5808 5802 5811 5813 5869 5857 5868 5894 5886 5890 5886 5889 5889 5886
5732 5735 5751 5756 5770 5772 5773 5767 5760 5799 5805 5817 5816 5816 5808 5820 5819 5817 5813 5808 5827 5830 5831 5814 5807 5833 5846 5833 5831 5831 5834 5816 5787 5809 5835 5878 5849 5861 5896 5899 5898 5894 5895 5891 5887
5738 5758 5765 5773 5768 5769 5766 5765 5790 5800 5806 5805 5810 5801 5807 5818 5817 5815 5815 5816 5829 5832 5813 5824 5816 5842 5845 5846 5840 5837 5816 5852 5837 5854 5842 5851 5785 5861 5891 5887 5896 5898 5894 5885 5886
5742 5767 5771 5771 5770 5766 5762 5768 5788 5796 5797 5803 5796 5814 5801 5807 5802 5810 5812 5832 5827 5837 5842 5834 5803 5836 5841 5840 5843 5837 5862 5821 5831 5799 5801 5844 5840 5854 5867 5873 5884 5893 5882 5891 5885
5742 5764 5768 5771 5770 5762 5763 5783 5785 5795 5794 5794 5801 5804 5821 5812 5816 5811 5816 5823 5833 5832 5837 5832 5823 5823 5830 5818 5821 5822 5820 5828 5845 5841 5813 5816 5839 5865 5875 5876 5878 5886 5892 5889 5891
5754 5760 5769 5770 5752 5771 5774 5781 5756 5790 5795 5795 5798 5807 5814 5820 5817 5823 5815 5826 5833 5833 5813 5830 5830 5817 5826 5850 5846 5845 5833 5832 5818 5813 5844 5838 5834 5852 5880 5887 5887 5889 5889 5885 5886
5751 5761 5767 5765 5754 5767 5778 5772 5778 5781 5786 5788 5791 5801 5810 5808 5801 5819 5823 5824 5825 5824 5817 5829 5813 5808 5815 5836 5838 5822 5833 5848 5848 5855 5832 5822 5819 5893 5892 5887 5888 5884 5884 5878 5876
5738 5747 5755 5756 5766 5764 5768 5766 5767 5781 5783 5787 5789 5796 5795 5795 5811 5805 5810 5814 5822 5823 5803 5816 5819 5821 5814 5818 5835 5819 5822 5831 5837 5828 5838 5843 5851 5872 5871 5871 5881 5875 5874 5875 5872
5738 5751 5752 5748 5755 5761 5764 5767 5762 5763 5775 5784 5779 5784 5789 5786 5798 5795 5813 5813 5813 5796 5808 5814 5804 5823 5828 5829 5826 5820 5826 5834 5823 5835 5826 5847 5829 5853 5864 5866 5870 5868 5866 5866 5862
5718 5727 5743 5749 5751 5751 5739 5754 5758 5769 5769 5769 5769 5784 5786 5781 5800 5794 5806 5808 5812 5813 5807 5820 5795 5807 5803 5820 5830 5812 5821 5827 5834 5840 5833 5840 5839 5871 5870 5877 5869 5856 5856 5855 5855
5714 5721 5719 5736 5747 5744 5752 5753 5754 5762 5768 5775 5778 5774 5776 5776 5787 5790 5801 5806 5813 5799 5803 5813 5807 5798 5786 5815 5813 5802 5823 5825 5831 5842 5839 5823 5847 5867 5856 5854 5856 5854 5853 5855 5854